STARLINK-31834, 59721

Orbit data source: Space-Track

STARLINK-31834, 59721 is a payload satellite owned by SpaceX/Seattle (US) in LEO that was launched on Fri, 10 May 2024 UTC via an FALCON 9 launch vehicle from the Air Force Western Test Range (AFWTR). Payload-class satellites include a variety of spacecraft equipped with specific instruments for various scientific and technological missions. These include communications satellites like Starlink; space stations such as the ISS; scientific satellites like the Hubble; Earth observation satellites from companies like Planet Labs, Umbra, and HawkEye 360; GPS; miniature CubeSats for education and research; and military/defense satellites.

Loading next visibility...
Identifier
59721, 2024-088P
Orbit
LEO
Country
Flag of USUS
Related business
Manufacturer
SpaceX/Seattle
Mission
Operational Commercial Communications
Bus & Motor
STARLINK V2M, Unknown motor
Mass
730 kg wet, ~700 kg dry
Launch date (UTC)
2024-05-10 (2 years ago)
Launch vehicle
FALCON 9
Launch site
Air Force Western Test Range (AFWTR)
Object type
Payload
Rocket body
Debris
Shape & HBR
Box + 2 Pan, 17.7 m
Radar Cross Section
33.884 m², Large (>1 m²)

Expand to show TLE details & history
Last TLE update: 15 hours ago

TLE from 15 hours ago
0 STARLINK-31834
1 59721U 24088P   25346.84809863  .00000613  00000-0  32830-4 0  9992
2 59721  53.1581 183.4721 0001255  90.4810 269.6335 15.30184170 90564
Epoch: 2025-12-12T20:21Z
TLE epoch observation values (Epoch: 2025-12-12T20:21:15.721Z)
Latitude
0.00001°
Longitude
156.37276°
Altitude
476.167 km
Speed
7.629 km/s
True Right ascension
12h 13m 53s
True Declination
0° 00' 00"
Sunlit
Object was in daylight at epoch
Visualization orbit readout
Latitude
Unknown
Longitude
Unknown
Altitude
Unknown
Speed
Unknown
Apparent Right ascension
Unknown
Apparent Declination
Unknown
Sunlit
N/A
Visualization observer readout
Local Sidereal Time
09:40:35
Azimuth
Unknown
Elevation
Unknown
Doppler factor
Unknown
Orbital elements
Apogee altitude
476.379 km
Perigee altitude
474.659 km
Semi-major axis
6,853.656 km
Eccentricity
0.00013
Inclination
53.1581°
RAAN
183.4721°
Arg. of periapsis
90.481°
True anomaly
269.61912°
Mean anomaly
269.6335°
Eccentric anomaly
269.62631°
Mean motion
3.82525 °/min
Orbital period
94.11 mins
BSTAR
0.00003283
Loading maneuver chart data...
Computing Atmospheric mass density...
Loading historical data...
Loading historical data...
Loading historical data...
Loading historical data...
Loading historical data...
Loading historical data...
Loading historical data...

Documentation

Showing up to 5 results
|